Weather in Kirillovskoye

Russia / Saint-Petersburg and Leningrad Oblast     60˚28′14″N   29˚17′13″E
temp.,
°C
wind,
m/s
gust,
m/s
humid.,
%
clouds,
%
prec.,
mm/h
press.,
hPa
HPBL,
m
16 january, sat
sat1600:00−15˚nne379594 0.0 1017230
03:00−15˚nne269883 0.0 1018204
06:00−14˚nne279695 0.1 1017274
09:00−14˚nne369794 0.1 1019186
12:00−13˚nne269375 0.0 1019277
15:00−13˚n259384 0.1 1019275
18:00−15˚n249581 0.0 1018124
21:00−15˚nnw229355 0.0 101833
17 january, sun
sun1700:00−15˚nw12960 0.0 101720
03:00−14˚wnw129810 0.0 101720
06:00−13˚wnw229768 0.0 101643
09:00−11˚w239775 0.1 101682
12:00−9˚w259575 0.1 1016167
15:00−8˚w269578 0.1 1015208
18:00−9˚wnw249792 0.1 101591
21:00−9˚wnw239791 0.1 101647
18 january, mon
mon1800:00−8˚wnw229794 0.0 101647
03:00−8˚wnw229894 0.0 101623
06:00−9˚wnw129894 0.0 101521
09:00−9˚wsw119894 0.1 101621
12:00−6˚ssw119593 0.1 101673
15:00−6˚ssw119688 0.1 101621
18:00−8˚ssw129664 0.0 101521
21:00−6˚s239775 0.1 101575
19 january, tue
tue1900:00−3˚sw389698 0.9 1015358
03:00−5˚ssw389499 1.1 1014220
06:00−4˚ssw379493 0.0 1013429
09:00−4˚ssw389596 0.2 1013344
12:00−4˚sw4893100 0.1 1013529
15:00−3˚sw4891100 0.2 1013681
18:00−4˚sw4890100 0.1 1013580
21:00−6˚ssw499295 0.1 1013344
20 january, wed
wed2000:00−7˚ssw410890 0.0 1014346
03:00−8˚s411830 0.0 1013360
06:00−8˚s4107584 0.0 1012435
09:00−8˚s4109293 0.3 1010493
12:00−7˚s4992100 0.3 1009429
15:00−7˚sse4991100 0.6 1007391
18:00−7˚sse41093100 0.6 1005647
21:00−6˚s4992100 1.2 1002629